{"data":{"norad_id":40968,"epoch":"2026-05-24T22:41:47.430240Z","epoch_age_seconds":82817,"freshness":"FRESH","line1":"1 40968U 15058E   26144.94568785  .00004018  00000+0  32690-3 0  9990","line2":"2 40968  64.7761 331.6861 0117942  62.4072 298.8962 14.95704581113185","mean_motion":14.95704581,"eccentricity":0.0117942,"inclination_deg":64.7761,"raan_deg":331.6861,"arg_perigee_deg":62.4072,"mean_anomaly_deg":298.8962,"bstar":0.0003269,"rev_number":11318,"period_min":96.275696303427,"perigee_km":498.11879539712,"apogee_km":662.25451713053,"semimajor_km":6958.3236562638,"source":"CELESTRAK","updated_at":"2026-05-25T13:38:25.525783Z"}}